Regional Weather Roundup
Issued by NWS

Home | Current Version | Previous Version | Text Only | Print | Product List | Glossary On
Versions: 1 2 3 4 5 6 7 8 9 10 11 12 13 14 15 16 17 18 19 20 21 22 23 24 25 26 27 28 29 30 31 32 33 34 35 36 37 38 39 40 41 42 43 44 45 46 47 48 49 50
000
ASUS43 KTOP 212008
RWRKS

WEATHER ROUNDUP FOR KANSAS
NATIONAL WEATHER SERVICE GOODLAND KS
200 PM CST SUN DEC 21 2014

NOTE:  "FAIR" INDICATES FEW OR NO CLOUDS BELOW 12,000 FEET WITH NO
SIGNIFICANT WEATHER AND/OR OBSTRUCTIONS TO VISIBILITY.

KSZ001>006-013>018-027>032-041>047-212100-
NORTHWEST KANSAS

CITY           SKY/WX    TMP DP  RH WIND       PRES   REMARKS
GOODLAND       PTSUNNY   52  30  43 S12       29.58F
HAYS           CLOUDY    43  34  70 S16       29.68F
HILL CITY      CLOUDY    45  36  70 S12       29.65F
RUSSELL        LGT RAIN  42  40  92 S15       29.69F
$$

KSZ061>065-074>080-084>089-212100-
SOUTHWEST KANSAS

CITY           SKY/WX    TMP DP  RH WIND       PRES   REMARKS
DODGE CITY     CLOUDY    44  36  73 S17       29.67F
ELKHART          N/A    N/A N/A N/A MISG        N/A
GARDEN CITY    SUNNY     47  32  56 SW16      29.64F
GREAT BEND     CLOUDY    41  37  87 S16       29.72F
LIBERAL        SUNNY     50  39  66 S9        29.67F
PRATT          FOG       41  41 100 S16       29.74F VSB 3/4
$$

KSZ066>073-081>083-090>101-212100-
SOUTHEAST KANSAS

CITY           SKY/WX    TMP DP  RH WIND       PRES   REMARKS
CHANUTE        CLOUDY    45  42  89 S16       29.87F
COFFEYVILLE    CLOUDY    47  41  80 S13       29.88F
HUTCHINSON     CLOUDY    43  41  93 S20       29.77F FOG
MEDICINE LODGE   N/A     43  43 100 S10       29.74F
NEWTON         CLOUDY    43  37  81 S18       29.79F
PARSONS        CLOUDY    47  42  83 S12G20    29.89F
WICHITA INTL   DRIZZLE   45  42  89 S13       29.78F FOG
WICHITA JABRA  CLOUDY    43  42  97 S16       29.79F FOG
WICHITA MCCONL CLOUDY    44  42  96 S18       29.79F FOG
WINFIELD       CLOUDY    46  42  86 S16       29.81F
$$

KSZ007>012-019>026-033>040-048>060-102>105-212100-
NORTHEAST KANSAS

CITY           SKY/WX    TMP DP  RH WIND       PRES   REMARKS
CONCORDIA      CLOUDY    41  41 100 S14       29.75F FOG
EMPORIA        LGT RAIN  42  40  92 S14       29.82F
LAWRENCE       CLOUDY    44  39  82 S10       29.86F
MANHATTAN      CLOUDY    45  40  82 S15       29.79F
MARYSVILLE     CLOUDY    43  37  81 S13G21    29.77F
OLATHE IND     CLOUDY    44  40  85 S9        29.87F
OLATHE EXE     CLOUDY    45  40  82 S10       29.86F
SALINA         CLOUDY    44  40  85 S9G21     29.77F
TOPEKA BILLARD CLOUDY   N/A N/A N/A S10       29.85F
TOPEKA FORBES  CLOUDY    45  40  82 S14G22    29.83F
$$


USA.gov is the U.S. government's official web portal to all federal, state and local government web resources and services.